This is the latest recevied weather packets stored in our database for station/object LX0APE-4. If no packets are shown the sender has not sent any weather packets the latest 10 day(s).
| Time | Temp. | Humidity | Pressure | Rain* | Wind** | Luminosity | Snow |
|---|---|---|---|---|---|---|---|
| 1777144042 | 17.22° C | 27% | 5016 hPa | 0 mm | - | - | - |
| 1777144040 | 17.22° C | 27% | 5016 hPa | 0 mm | - | - | - |
| 1777144035 | 17.22° C | 27% | 5016 hPa | 0 mm | - | - | - |
| 1777143735 | 17.22° C | 26% | 5015.9 hPa | 0 mm | - | - | - |
| 1777143435 | 17.22° C | 26% | 5015.7 hPa | 0 mm | - | - | - |
| 1777143139 | 17.78° C | 26% | 5015.8 hPa | 0 mm | - | - | - |
| 1777143135 | 17.78° C | 26% | 5015.8 hPa | 0 mm | - | - | - |
| 1777142835 | 17.78° C | 26% | 5015.7 hPa | 0 mm | - | - | - |
| 1777142535 | 18.33° C | 26% | 5015.6 hPa | 0 mm | - | - | - |
| 1777142235 | 18.89° C | 25% | 5015.4 hPa | 0 mm | - | - | - |
| 1777141935 | 19.44° C | 24% | 5015.7 hPa | 0 mm | - | - | - |
| 1777141635 | 20.56° C | 23% | 5015.5 hPa | 0 mm | - | - | - |
| 1777141335 | 21.11° C | 22% | 5015.4 hPa | 0 mm | - | - | - |
| 1777141035 | 21.67° C | 22% | 5015.4 hPa | 0 mm | - | - | - |
| 1777140735 | 21.67° C | 21% | 5015.4 hPa | 0 mm | - | - | - |
| 1777140435 | 22.22° C | 20% | 5015.3 hPa | 0 mm | - | - | - |
| 1777140135 | 23.33° C | 18% | 5015.2 hPa | 0 mm | - | - | - |
| 1777139835 | 23.89° C | 17% | 5015.2 hPa | 0 mm | - | - | - |
| 1777139535 | 23.89° C | 16% | 5015.2 hPa | 0 mm | - | - | - |
| 1777139235 | 24.44° C | 15% | 5015.2 hPa | 0 mm | - | - | - |
| 1777138935 | 25.56° C | 13% | 5015 hPa | 0 mm | - | - | - |
| 1777138635 | 28.33° C | 13% | 5015.1 hPa | 0 mm | - | - | - |
| 1777138335 | 30.56° C | 11% | 5015.1 hPa | 0 mm | - | - | - |
| 1777138035 | 31.11° C | 12% | 5015 hPa | 0 mm | - | - | - |
| 1777137735 | 32.22° C | 13% | 5014.8 hPa | 0 mm | - | - | - |
* Rain latest hour (hover to see other rain measurements)
** Current wind speed in m/s (hover to see current wind gust speed)